Showing default

GALILEO 31 (10D), 61183

Orbit data source: Space-Track

GALILEO 31 (10D), 61183 is a payload satellite owned by EU SPA (ESA) that was launched on Tue, 17 Sep 2024 UTC via an FALCON 9 launch vehicle from the Air Force Eastern Test Range (AFETR). Payload-class satellites include a variety of spacecraft equipped with specific instruments for various scientific and technological missions. These include communications satellites like Starlink; space stations such as the ISS; scientific satellites like the Hubble; Earth observation satellites from companies like Planet Labs, Umbra, and HawkEye 360; GPS; miniature CubeSats for education and research; and military/defense satellites.

Loading next visibility...
Identifier
61183, 2024-167B
Orbit
Active
Country
Flag of ESAESA
Related business
Manufacturer
OHB
Mission
Operational Civil Navigation
Bus & Motor
GALILEO, AOCS
Mass
733 kg wet, 660 kg dry
Launch date (UTC)
2024-09-17 (2 years ago)
Launch vehicle
FALCON 9
Launch site
Air Force Eastern Test Range (AFETR)
Object type
Payload
Rocket body
Debris
Shape & HBR
Box + 2 Pan, 7.3 m
Radar Cross Section
9.223 m², Large (>1 m²)

Expand to show TLE details & history
Last TLE update: 17 hours ago

TLE from 17 hours ago
0 GALILEO 31 (10D)
1 61183U 24167B   26171.12948163  .00000026  00000-0  00000+0 0  9997
2 61183  55.1827 221.2399 0003009 230.8244 194.9670  1.70474300 10904
Epoch: 2026-06-20T03:06Z
TLE epoch observation values (Epoch: 2026-06-20T03:06:27.212Z)
Latitude
48.48248°
Longitude
-42.01304°
Altitude
23,236.992 km
Speed
3.669 km/s
True Right ascension
18h 11m 47s
True Declination
48° 26' 29"
Sunlit
Object was in daylight at epoch
Visualization orbit readout
Latitude
Unknown
Longitude
Unknown
Altitude
Unknown
Speed
Unknown
Apparent Right ascension
Unknown
Apparent Declination
Unknown
Sunlit
N/A
Visualization observer readout
Local Sidereal Time
07:17:51
Azimuth
Unknown
Elevation
Unknown
Doppler factor
Unknown
Orbital elements
Apogee altitude
23,231.057 km
Perigee altitude
23,213.243 km
Semi-major axis
29,600.287 km
Eccentricity
0.0003
Inclination
55.1827°
RAAN
221.2399°
Arg. of periapsis
230.8244°
True anomaly
194.9581°
Mean anomaly
194.967°
Eccentric anomaly
194.96255°
Mean motion
0.42619 °/min
Orbital period
844.7 mins
BSTAR
0
Loading maneuver chart data...
Computing Atmospheric mass density...
Loading historical data...
Loading historical data...
Loading historical data...
Loading historical data...
Loading historical data...
Loading historical data...
Loading historical data...
Other satellites on launch #167 in the year 2024 (2024-09-17 UTC)

Documentation

Showing up to 5 results
|